Location: Hilton Head Island
(32.2163°N, 80.7526°W)
Time: 22:40:48
(UTC-04:00)

Transit 2A Rocket - Pass Details

Date: 13 February 2026
Orbit: 583 x 900 km, 66.7° (Epoch: 12 March)

Event Time Altitude Azimuth Distance (km) Brightness Sun altitude
Rises 02:53:26 0° 335° (NNW) 3,318 - -53.6°
Reaches altitude 10° 02:55:58 10° 336° (NNW) 2,336 - -53.1°
Maximum altitude 03:01:18 84° 64° (ENE) 734 - -52.1°
Drops below altitude 10° 03:06:07 10° 153° (SSE) 2,111 - -51.1°
Sets 03:08:19 0° 154° (SSE) 2,976 - -50.7°
